Location: Unspecified
(0.0000°N, 0.0000°E)
Time: 14:06:42
(UTC+00:00)

Sapphire - Visible Passes

Search period start: 23 February 2024 00:00
Search period end: 04 March 2024 00:00
Orbit: 786 x 792 km, 67.1° (Epoch: 22 February)

Date Brightness Start Highest point End Pass type
(mag) Time Alt. Az. Time Alt. Az. Time Alt. Az.
23 Feb ? 18:41:53 10° NE 18:43:37 11° ENE 18:45:21 10° E visible
23 Feb ? 20:21:37 10° NW 20:26:44 44° WSW 20:27:26 42° SW visible
24 Feb ? 19:50:17 10° NNW 19:55:38 71° WSW 20:01:00 10° SSE visible
25 Feb ? 19:19:11 10° NNW 19:24:32 74° ENE 19:29:55 10° SSE visible
26 Feb ? 18:48:18 10° N 18:53:27 47° ENE 18:58:36 10° SE visible
26 Feb ? 20:35:14 10° W 20:36:34 11° WSW 20:37:56 10° SW visible
27 Feb ? 20:01:54 10° WNW 20:05:27 18° WSW 20:09:00 10° SSW visible
28 Feb ? 19:29:49 10° NW 19:34:20 28° WSW 19:38:52 10° SSW visible
29 Feb ? 18:58:10 10° NW 19:03:14 43° WSW 19:08:19 10° S visible
02 Mar ? 05:20:45 10° SSE 05:25:04 24° ESE 05:29:23 10° NE visible
03 Mar ? 04:50:48 10° SE 04:53:57 16° ESE 04:57:06 10° ENE visible
03 Mar ? 19:12:07 10° W 19:13:04 10° WSW 19:14:01 10° WSW visible
